User: anonymous   Login
Location: Unspecified
(0.0000°N, 0.0000°E)
Time: 04:21:24
(UTC+00:00)
Language:

LAPAN A2 - Orbit

View from above orbital plane
View from above orbital plane
View from above satellite
View from above satellite

Ground track
Ground track

The orbit data is extracted from the following two-line orbital elements,

1 40931U 15052B   18262.14777307  .00000608  00000-0 -43886-5 0  9994
2 40931   6.0007 200.0563 0013515 264.3178  95.5515 14.76584143160914
Epoch (UTC): 19 September 2018 03:32:47
Eccentricity: 0.0013515
inclination: 6.0007°
perigee height: 630 km
apogee height: 649 km
right ascension of ascending node: 200.0563°
argument of perigee: 264.3178°
revolutions per day: 14.76584143
mean anomaly at epoch: 95.5515°
orbit number at epoch: 16091

The dashed part of the orbit path shows where the satellite is in the earth's shadow,  

DLR